Time,TemperatureF,DewpointF,PressureIn,WindDirection,WindDirectionDegrees,WindSpeedMPH,WindSpeedGustMPH,Humidity,HourlyPrecipIn,Conditions,Clouds,dailyrainin,SoftwareType,DateUTC
2013-02-16 00:02:00,29.0,26.0,-100.00,East,100,0.0,1.0,89,0.00,,,-99.99,,2013-02-16 05:02:00,
2013-02-16 00:12:00,28.0,25.0,-100.00,NE,45,1.0,1.0,89,0.00,,,-99.99,,2013-02-16 05:12:00,
2013-02-16 00:22:00,27.0,25.0,-100.00,East,100,0.0,1.0,90,0.00,,,-99.99,,2013-02-16 05:22:00,
2013-02-16 00:32:00,27.0,25.0,-100.00,East,90,1.0,1.0,90,0.00,,,-99.99,,2013-02-16 05:32:00,
2013-02-16 00:42:00,28.0,26.0,-100.00,SSW,205,1.0,2.0,91,0.00,,,-99.99,,2013-02-16 05:42:00,
2013-02-16 00:52:00,28.0,26.0,-100.00,SE,135,0.0,2.0,91,0.00,,,-99.99,,2013-02-16 05:52:00,
2013-02-16 01:02:00,29.0,26.0,-100.00,NE,45,0.0,2.0,91,0.00,,,-99.99,,2013-02-16 06:02:00,
2013-02-16 01:11:00,29.0,26.0,-100.00,ENE,70,1.0,1.0,91,0.00,,,-99.99,,2013-02-16 06:11:00,
2013-02-16 01:22:00,29.0,27.0,-100.00,ENE,70,1.0,2.0,92,0.00,,,-99.99,,2013-02-16 06:22:00,
2013-02-16 01:32:00,29.0,27.0,-100.00,NE,45,0.0,1.0,92,0.00,,,-99.99,,2013-02-16 06:32:00,
2013-02-16 01:42:00,29.0,27.0,-100.00,NE,45,0.0,0.0,92,0.00,,,-99.99,,2013-02-16 06:42:00,
2013-02-16 01:52:00,30.0,27.0,-100.00,North,10,0.0,2.0,92,0.00,,,-99.99,,2013-02-16 06:52:00,
2013-02-16 02:02:00,30.0,27.0,-100.00,North,0,1.0,1.0,92,0.00,,,-99.99,,2013-02-16 07:02:00,
2013-02-16 02:11:00,30.0,28.0,-100.00,East,80,0.0,2.0,91,0.00,,,-99.99,,2013-02-16 07:11:00,
2013-02-16 02:22:00,30.0,28.0,-100.00,North,5,0.0,1.0,91,0.00,,,-99.99,,2013-02-16 07:22:00,
2013-02-16 02:32:00,30.0,28.0,-100.00,East,100,0.0,1.0,91,0.00,,,-99.99,,2013-02-16 07:32:00,
2013-02-16 02:42:00,30.0,28.0,-100.00,West,280,0.0,1.0,90,0.00,,,-99.99,,2013-02-16 07:42:00,
2013-02-16 02:52:00,30.0,28.0,-100.00,ENE,60,1.0,2.0,90,0.00,,,-99.99,,2013-02-16 07:52:00,
2013-02-16 03:01:00,31.0,28.0,-100.00,NE,45,0.0,2.0,89,0.00,,,-99.99,,2013-02-16 08:01:00,
2013-02-16 03:11:00,31.0,28.0,-100.00,East,95,2.0,2.0,89,0.00,,,-99.99,,2013-02-16 08:11:00,
2013-02-16 03:22:00,31.0,28.0,-100.00,NNW,340,3.0,4.0,87,0.00,,,-99.99,,2013-02-16 08:22:00,
2013-02-16 03:32:00,32.0,28.0,-100.00,NW,325,6.0,9.0,84,0.00,,,-99.99,,2013-02-16 08:32:00,
2013-02-16 03:42:00,34.0,27.0,-100.00,North,0,4.0,11.0,74,0.00,,,-99.99,,2013-02-16 08:42:00,
2013-02-16 03:52:00,34.0,26.0,-100.00,NNW,330,4.0,11.0,69,0.00,,,-99.99,,2013-02-16 08:52:00,
2013-02-16 04:02:00,35.0,26.0,-100.00,NNW,340,6.0,12.0,70,0.00,,,-99.99,,2013-02-16 09:02:00,
2013-02-16 04:11:00,34.0,27.0,-100.00,NNE,20,4.0,11.0,72,0.00,,,-99.99,,2013-02-16 09:11:00,
2013-02-16 04:21:00,34.0,27.0,-100.00,NNW,345,6.0,12.0,76,0.00,,,-99.99,,2013-02-16 09:21:00,
2013-02-16 04:32:00,33.0,28.0,-100.00,North,0,3.0,12.0,80,0.01,,,-99.99,,2013-02-16 09:32:00,
2013-02-16 04:42:00,33.0,29.0,-100.00,NNE,25,2.0,11.0,83,0.00,,,-99.99,,2013-02-16 09:42:00,
2013-02-16 04:51:00,33.0,29.0,-100.00,NE,35,3.0,13.0,86,0.10,,,-99.99,,2013-02-16 09:51:00,
2013-02-16 05:01:00,32.0,29.0,-100.00,NNW,345,2.0,6.0,88,0.16,,,-99.99,,2013-02-16 10:01:00,
2013-02-16 05:11:00,32.0,30.0,-100.00,North,0,3.0,9.0,90,0.08,,,-99.99,,2013-02-16 10:11:00,
2013-02-16 05:21:00,32.0,30.0,-100.00,ENE,70,2.0,9.0,91,0.03,,,-99.99,,2013-02-16 10:21:00,
2013-02-16 05:32:00,32.0,30.0,-100.00,NNW,330,3.0,7.0,92,0.03,,,-99.99,,2013-02-16 10:32:00,
2013-02-16 05:42:00,32.0,30.0,-100.00,NNE,30,2.0,6.0,93,0.03,,,-99.99,,2013-02-16 10:42:00,
2013-02-16 05:52:00,32.0,30.0,-100.00,NE,40,2.0,8.0,93,0.06,,,-99.99,,2013-02-16 10:52:00,
2013-02-16 06:02:00,32.0,30.0,-100.00,North,5,1.0,6.0,94,0.04,,,-99.99,,2013-02-16 11:02:00,
2013-02-16 06:11:00,32.0,30.0,-100.00,ENE,75,1.0,4.0,94,0.03,,,-99.99,,2013-02-16 11:11:00,
2013-02-16 06:22:00,31.0,30.0,-100.00,NNE,15,1.0,3.0,95,0.01,,,-99.99,,2013-02-16 11:22:00,
2013-02-16 06:32:00,31.0,30.0,-100.00,West,260,0.0,4.0,95,0.01,,,-99.99,,2013-02-16 11:32:00,
2013-02-16 06:42:00,31.0,30.0,-100.00,ENE,60,2.0,4.0,95,0.03,,,-99.99,,2013-02-16 11:42:00,
2013-02-16 06:52:00,31.0,30.0,-100.00,ENE,70,1.0,4.0,95,0.08,,,-99.99,,2013-02-16 11:52:00,
2013-02-16 07:02:00,31.0,30.0,-100.00,North,10,1.0,3.0,95,0.01,,,-99.99,,2013-02-16 12:02:00,
2013-02-16 07:12:00,31.0,31.0,-100.00,NW,315,1.0,4.0,96,0.10,,,-99.99,,2013-02-16 12:12:00,
2013-02-16 07:22:00,31.0,31.0,-100.00,North,355,2.0,4.0,96,0.14,,,-99.99,,2013-02-16 12:22:00,
2013-02-16 07:32:00,31.0,31.0,-100.00,East,90,1.0,5.0,96,0.06,,,-99.99,,2013-02-16 12:32:00,
2013-02-16 07:42:00,31.0,31.0,-100.00,NNE,25,2.0,6.0,96,0.04,,,-99.99,,2013-02-16 12:42:00,
2013-02-16 07:52:00,31.0,31.0,-100.00,ENE,60,1.0,4.0,96,0.00,,,-99.99,,2013-02-16 12:52:00,
2013-02-16 08:02:00,32.0,31.0,-100.00,NE,55,1.0,3.0,96,0.01,,,-99.99,,2013-02-16 13:02:00,
2013-02-16 08:12:00,32.0,31.0,-100.00,East,90,1.0,4.0,96,0.00,,,-99.99,,2013-02-16 13:12:00,
2013-02-16 08:22:00,32.0,31.0,-100.00,NE,45,1.0,4.0,97,0.03,,,-99.99,,2013-02-16 13:22:00,
2013-02-16 08:32:00,32.0,31.0,-100.00,NE,55,1.0,2.0,97,0.01,,,-99.99,,2013-02-16 13:32:00,
2013-02-16 08:42:00,32.0,31.0,-100.00,NNE,15,1.0,2.0,97,0.07,,,-99.99,,2013-02-16 13:42:00,
2013-02-16 08:51:00,32.0,31.0,-100.00,SSE,160,1.0,3.0,97,0.01,,,-99.99,,2013-02-16 13:51:00,
2013-02-16 09:01:00,32.0,32.0,-100.00,North,5,1.0,4.0,97,0.00,,,-99.99,,2013-02-16 14:01:00,
2013-02-16 09:11:00,33.0,32.0,-100.00,NE,35,1.0,3.0,97,0.00,,,-99.99,,2013-02-16 14:11:00,
2013-02-16 09:21:00,33.0,32.0,-100.00,NNE,15,1.0,4.0,96,0.00,,,-99.99,,2013-02-16 14:21:00,
2013-02-16 09:32:00,33.0,32.0,-100.00,ENE,70,1.0,4.0,96,0.00,,,-99.99,,2013-02-16 14:32:00,
2013-02-16 09:42:00,33.0,32.0,-100.00,ENE,70,1.0,4.0,95,0.00,,,-99.99,,2013-02-16 14:42:00,
2013-02-16 09:52:00,33.0,32.0,-100.00,NE,55,2.0,6.0,95,0.00,,,-99.99,,2013-02-16 14:52:00,
2013-02-16 10:02:00,34.0,32.0,-100.00,ENE,75,1.0,6.0,94,0.00,,,-99.99,,2013-02-16 15:02:00,
2013-02-16 10:11:00,33.0,32.0,-100.00,NNE,25,1.0,7.0,93,0.00,,,-99.99,,2013-02-16 15:11:00,
2013-02-16 10:22:00,34.0,31.0,-100.00,NE,55,4.0,7.0,91,0.00,,,-99.99,,2013-02-16 15:22:00,
2013-02-16 10:32:00,35.0,32.0,-100.00,ENE,75,2.0,7.0,89,0.00,,,-99.99,,2013-02-16 15:32:00,
2013-02-16 10:42:00,35.0,31.0,-100.00,NE,55,4.0,11.0,86,0.00,,,-99.99,,2013-02-16 15:42:00,
2013-02-16 10:52:00,35.0,30.0,-100.00,NNE,30,2.0,7.0,81,0.00,,,-99.99,,2013-02-16 15:52:00,
2013-02-16 11:02:00,35.0,29.0,-100.00,ENE,70,2.0,7.0,78,0.00,,,-99.99,,2013-02-16 16:02:00,
2013-02-16 11:11:00,35.0,28.0,-100.00,ENE,60,2.0,7.0,76,0.00,,,-99.99,,2013-02-16 16:11:00,
2013-02-16 11:21:00,36.0,28.0,-100.00,NNW,330,3.0,7.0,73,0.00,,,-99.99,,2013-02-16 16:21:00,
2013-02-16 11:32:00,36.0,28.0,-100.00,NW,320,2.0,7.0,71,0.00,,,-99.99,,2013-02-16 16:32:00,
2013-02-16 11:42:00,36.0,27.0,-100.00,NNE,20,2.0,5.0,69,0.00,,,-99.99,,2013-02-16 16:42:00,
2013-02-16 11:52:00,36.0,27.0,-100.00,NE,55,3.0,6.0,68,0.00,,,-99.99,,2013-02-16 16:52:00,
2013-02-16 12:01:00,36.0,27.0,-100.00,North,350,2.0,8.0,68,0.00,,,-99.99,,2013-02-16 17:01:00,
2013-02-16 12:11:00,37.0,27.0,-100.00,East,90,2.0,7.0,67,0.00,,,-99.99,,2013-02-16 17:11:00,
2013-02-16 12:22:00,36.0,27.0,-100.00,NE,35,4.0,7.0,67,0.00,,,-99.99,,2013-02-16 17:22:00,
2013-02-16 12:32:00,37.0,27.0,-100.00,North,355,2.0,9.0,66,0.00,,,-99.99,,2013-02-16 17:32:00,
2013-02-16 12:42:00,38.0,26.0,-100.00,North,10,2.0,8.0,62,0.00,,,-99.99,,2013-02-16 17:42:00,
2013-02-16 12:52:00,37.0,26.0,-100.00,NNE,30,3.0,9.0,62,0.00,,,-99.99,,2013-02-16 17:52:00,
2013-02-16 13:02:00,38.0,25.0,-100.00,NE,50,4.0,7.0,61,0.00,,,-99.99,,2013-02-16 18:02:00,
2013-02-16 13:11:00,38.0,25.0,-100.00,ENE,60,4.0,9.0,59,0.00,,,-99.99,,2013-02-16 18:11:00,
2013-02-16 13:22:00,38.0,25.0,-100.00,NE,50,2.0,6.0,59,0.00,,,-99.99,,2013-02-16 18:22:00,
2013-02-16 13:33:00,38.0,25.0,-100.00,East,80,2.0,7.0,59,0.00,,,-99.99,,2013-02-16 18:33:00,
2013-02-16 13:42:00,38.0,25.0,-100.00,NE,40,2.0,5.0,57,0.00,,,-99.99,,2013-02-16 18:42:00,
2013-02-16 13:52:00,38.0,24.0,-100.00,ENE,65,3.0,8.0,57,0.00,,,-99.99,,2013-02-16 18:52:00,
2013-02-16 14:02:00,39.0,25.0,-100.00,NW,310,2.0,4.0,57,0.00,,,-99.99,,2013-02-16 19:02:00,
2013-02-16 14:11:00,38.0,24.0,-100.00,ENE,70,2.0,6.0,56,0.00,,,-99.99,,2013-02-16 19:11:00,
2013-02-16 14:22:00,39.0,24.0,-100.00,East,90,1.0,4.0,55,0.00,,,-99.99,,2013-02-16 19:22:00,
2013-02-16 14:32:00,39.0,25.0,-100.00,East,90,2.0,6.0,56,0.00,,,-99.99,,2013-02-16 19:32:00,
2013-02-16 14:42:00,38.0,24.0,-100.00,NNW,330,1.0,6.0,56,0.00,,,-99.99,,2013-02-16 19:42:00,
2013-02-16 14:52:00,38.0,24.0,-100.00,NE,50,3.0,5.0,54,0.00,,,-99.99,,2013-02-16 19:52:00,
2013-02-16 15:01:00,38.0,23.0,-100.00,NE,55,3.0,7.0,54,0.00,,,-99.99,,2013-02-16 20:01:00,
2013-02-16 15:11:00,38.0,24.0,-100.00,East,80,1.0,4.0,55,0.00,,,-99.99,,2013-02-16 20:11:00,
2013-02-16 15:22:00,38.0,23.0,-100.00,NE,55,4.0,7.0,54,0.00,,,-99.99,,2013-02-16 20:22:00,
2013-02-16 15:32:00,39.0,24.0,-100.00,North,0,1.0,4.0,55,0.00,,,-99.99,,2013-02-16 20:32:00,
2013-02-16 15:42:00,39.0,23.0,-100.00,NE,55,1.0,3.0,52,0.00,,,-99.99,,2013-02-16 20:42:00,
2013-02-16 15:52:00,39.0,23.0,-100.00,ENE,60,2.0,6.0,51,0.00,,,-99.99,,2013-02-16 20:52:00,
2013-02-16 16:02:00,39.0,23.0,-100.00,ENE,75,2.0,5.0,53,0.00,,,-99.99,,2013-02-16 21:02:00,
2013-02-16 16:11:00,39.0,23.0,-100.00,ENE,70,1.0,4.0,53,0.00,,,-99.99,,2013-02-16 21:11:00,
2013-02-16 16:21:00,39.0,22.0,-100.00,ENE,75,2.0,7.0,51,0.00,,,-99.99,,2013-02-16 21:21:00,
2013-02-16 16:32:00,39.0,21.0,-100.00,ENE,65,2.0,6.0,49,0.00,,,-99.99,,2013-02-16 21:32:00,
2013-02-16 16:42:00,39.0,22.0,-100.00,NE,35,4.0,9.0,50,0.00,,,-99.99,,2013-02-16 21:42:00,
2013-02-16 16:52:00,38.0,21.0,-100.00,NE,35,2.0,9.0,49,0.00,,,-99.99,,2013-02-16 21:52:00,
2013-02-16 17:01:00,38.0,20.0,-100.00,NE,55,3.0,9.0,47,0.00,,,-99.99,,2013-02-16 22:01:00,
2013-02-16 17:11:00,37.0,20.0,-100.00,NE,35,2.0,6.0,49,0.00,,,-99.99,,2013-02-16 22:11:00,
2013-02-16 17:21:00,37.0,20.0,-100.00,ENE,65,3.0,7.0,49,0.00,,,-99.99,,2013-02-16 22:21:00,
2013-02-16 17:32:00,37.0,20.0,-100.00,NNE,20,1.0,7.0,51,0.00,,,-99.99,,2013-02-16 22:32:00,
2013-02-16 17:42:00,36.0,19.0,-100.00,East,90,2.0,7.0,48,0.00,,,-99.99,,2013-02-16 22:42:00,
2013-02-16 17:52:00,36.0,20.0,-100.00,North,10,2.0,7.0,51,0.00,,,-99.99,,2013-02-16 22:52:00,
2013-02-16 18:02:00,36.0,20.0,-100.00,NNE,20,2.0,7.0,51,0.00,,,-99.99,,2013-02-16 23:02:00,
2013-02-16 18:11:00,36.0,19.0,-100.00,NNE,25,1.0,4.0,50,0.00,,,-99.99,,2013-02-16 23:11:00,
2013-02-16 18:21:00,36.0,19.0,-100.00,North,5,3.0,6.0,49,0.00,,,-99.99,,2013-02-16 23:21:00,
2013-02-16 18:32:00,35.0,19.0,-100.00,ENE,70,3.0,9.0,50,0.00,,,-99.99,,2013-02-16 23:32:00,
2013-02-16 18:42:00,35.0,18.0,-100.00,NE,55,4.0,9.0,49,0.00,,,-99.99,,2013-02-16 23:42:00,
2013-02-16 18:52:00,35.0,18.0,-100.00,North,355,2.0,7.0,50,0.00,,,-99.99,,2013-02-16 23:52:00,
2013-02-16 19:02:00,35.0,17.0,-100.00,NNE,15,3.0,9.0,48,0.00,,,-99.99,,2013-02-17 00:02:00,
2013-02-16 19:12:00,34.0,17.0,-100.00,NNE,30,4.0,11.0,49,0.00,,,-99.99,,2013-02-17 00:12:00,
2013-02-16 19:22:00,34.0,17.0,-100.00,North,355,4.0,11.0,48,0.00,,,-99.99,,2013-02-17 00:22:00,
2013-02-16 19:32:00,34.0,17.0,-100.00,North,5,2.0,12.0,49,0.00,,,-99.99,,2013-02-17 00:32:00,
2013-02-16 19:42:00,34.0,16.0,-100.00,NNE,20,2.0,9.0,48,0.00,,,-99.99,,2013-02-17 00:42:00,
2013-02-16 19:52:00,33.0,17.0,-100.00,ENE,70,2.0,11.0,50,0.00,,,-99.99,,2013-02-17 00:52:00,
2013-02-16 20:01:00,33.0,16.0,-100.00,North,0,2.0,9.0,48,0.00,,,-99.99,,2013-02-17 01:01:00,
2013-02-16 20:11:00,33.0,15.0,-100.00,ENE,70,2.0,10.0,47,0.00,,,-99.99,,2013-02-17 01:11:00,
2013-02-16 20:21:00,33.0,15.0,-100.00,ENE,70,4.0,7.0,47,0.00,,,-99.99,,2013-02-17 01:21:00,
2013-02-16 20:32:00,32.0,15.0,-100.00,ENE,75,3.0,7.0,47,0.00,,,-99.99,,2013-02-17 01:32:00,
2013-02-16 20:42:00,32.0,15.0,-100.00,ENE,70,3.0,7.0,49,0.00,,,-99.99,,2013-02-17 01:42:00,
2013-02-16 20:52:00,32.0,15.0,-100.00,North,10,4.0,12.0,47,0.00,,,-99.99,,2013-02-17 01:52:00,
2013-02-16 21:01:00,32.0,15.0,-100.00,ENE,65,3.0,7.0,48,0.00,,,-99.99,,2013-02-17 02:01:00,
2013-02-16 21:11:00,32.0,14.0,-100.00,ENE,70,4.0,11.0,47,0.00,,,-99.99,,2013-02-17 02:11:00,
2013-02-16 21:21:00,31.0,15.0,-100.00,NE,50,2.0,7.0,50,0.00,,,-99.99,,2013-02-17 02:21:00,
2013-02-16 21:32:00,31.0,14.0,-100.00,East,80,2.0,10.0,47,0.00,,,-99.99,,2013-02-17 02:32:00,
2013-02-16 21:42:00,31.0,14.0,-100.00,NE,40,1.0,7.0,48,0.00,,,-99.99,,2013-02-17 02:42:00,
2013-02-16 21:52:00,31.0,13.0,-100.00,North,10,3.0,7.0,47,0.00,,,-99.99,,2013-02-17 02:52:00,
2013-02-16 22:02:00,31.0,14.0,-100.00,North,10,3.0,8.0,48,0.00,,,-99.99,,2013-02-17 03:02:00,
2013-02-16 22:11:00,31.0,14.0,-100.00,NNE,30,3.0,10.0,49,0.00,,,-99.99,,2013-02-17 03:11:00,
2013-02-16 22:21:00,31.0,14.0,-100.00,NNE,15,2.0,7.0,49,0.00,,,-99.99,,2013-02-17 03:21:00,
2013-02-16 22:32:00,31.0,14.0,-100.00,North,0,2.0,7.0,49,0.00,,,-99.99,,2013-02-17 03:32:00,
2013-02-16 22:42:00,30.0,14.0,-100.00,NNW,345,2.0,7.0,49,0.00,,,-99.99,,2013-02-17 03:42:00,
2013-02-16 22:51:00,30.0,13.0,-100.00,North,0,3.0,6.0,49,0.00,,,-99.99,,2013-02-17 03:51:00,
2013-02-16 23:01:00,30.0,14.0,-100.00,North,10,3.0,9.0,50,0.00,,,-99.99,,2013-02-17 04:01:00,
2013-02-16 23:11:00,30.0,14.0,-100.00,NNE,20,4.0,12.0,50,0.00,,,-99.99,,2013-02-17 04:11:00,
2013-02-16 23:21:00,29.0,13.0,-100.00,NE,45,4.0,9.0,50,0.00,,,-99.99,,2013-02-17 04:21:00,
2013-02-16 23:32:00,29.0,13.0,-100.00,NE,55,4.0,11.0,49,0.00,,,-99.99,,2013-02-17 04:32:00,
2013-02-16 23:42:00,29.0,12.0,-100.00,ENE,70,4.0,9.0,49,0.00,,,-99.99,,2013-02-17 04:42:00,
2013-02-16 23:51:00,29.0,12.0,-100.00,NE,50,4.0,11.0,49,0.00,,,-99.99,,2013-02-17 04:51:00,